Weather in Nekrasovskoe

Russia / Yaroslavl Oblast     57°40′39″N   40°22′00″E
temp.,
°C
wind,
m/s
gust,
m/s
humid.,
%
clouds,
%
prec.,
mm/h
press.,
hPa
HPBL,
m
24 june, thu
thu2400:00+22sw238044 0.0 102023
03:00+21wsw228458 0.0 102020
06:00+23sw238119 0.0 1020112
09:00+27wsw3465100 0.0 1019392
12:00+31wsw345370 0.0 10191020
15:00+32ssw454934 0.0 10181495
18:00+31sw366297 0.0 1016248
21:00+25sw22750 0.0 101617
25 june, fri
fri2500:00+23wsw3576100 0.0 101673
03:00+20nnw3380100 0.0 101650
06:00+22w2280100 0.0 1016105
09:00+25wnw23715 0.1 1016374
12:00+28w345899 0.0 1016826
15:00+30w245250 0.0 10151432
18:00+31s13585 0.0 10131526
21:00+20wsw510929 1.4 1014215
26 june, sat
sat2600:00+19wsw3795100 4.1 1015189
03:00+18ne1192100 4.2 101311
06:00+20wsw238893 0.0 1014130
09:00+24ssw33685 0.0 1013417
12:00+28sw346113 0.0 1013851
15:00+30sw34585 0.0 10121331
18:00+29ssw477022 0.6 1010368
21:00+24nnw22824 1.3 101118
27 june, sun
sun2700:00+22wsw018816 0.0 101211
03:00+20wsw11885 0.1 101211
06:00+23wsw22865 0.7 101289
09:00+27sw226958 0.7 1012466
12:00+29wsw33585 0.2 10121044
15:00+31ssw225320 0.2 10121399
18:00+30s226269 0.0 1011757
21:00+26s467361 0.1 1011118
28 june, mon
mon2800:00+21s2393100 4.8 101261
03:00+20ssw339051 5.6 101144
06:00+22ssw128562 0.0 101196
09:00+26ssw227153 0.0 1011441
12:00+29sw346150 0.0 10111081
15:00+30sw455569 0.0 10111507
18:00+28wsw487087 0.6 1010261
21:00+19w019392 4.8 101117